Location: Unspecified
(0.0000°N, 0.0000°E)
Time: 18:02:36
(UTC+00:00)

Hubble Space Telescope - Pass Details

Date: 15 January 2021
Orbit: 536 x 539 km, 28.5° (Epoch: 24 January)

Event Time Altitude Azimuth Distance (km) Brightness Sun altitude
Exits shadow 03:41:47 15° 97° (E) 1,481 3.6 -34.1°
Drops below altitude 10° 03:42:36 10° 102° (ESE) 1,776 4.2 -33.9°
Sets 03:44:56 0° 109° (ESE) 2,667 5.4 -33.4°
